Regional Weather Roundup
Issued by NWS

Home | Current Version | Previous Version | Text Only | Print | Product List | Glossary Off
Versions: 1 2 3 4 5 6 7 8 9 10 11 12 13 14 15 16 17 18 19 20 21 22 23 24 25 26 27 28 29 30 31 32 33 34 35 36 37 38 39 40 41 42 43 44 45 46 47 48 49 50

000
ASUS45 KPSR 040200
RWRAZ

ARIZONA HOURLY REGIONAL WEATHER ROUNDUP
NATIONAL WEATHER SERVICE PHOENIX AZ
700 PM MST THU SEP 03 2015

NOTE: FAIR INDICATES FEW OR NO CLOUDS BELOW 12,000 FEET WITH NO
SIGNIFICANT WEATHER AND/OR OBSTRUCTIONS TO VISIBILITY.

AZZ001>003-036-040300-
NORTHWEST ARIZONA

CITY           SKY/WX    TMP DP  RH WIND       PRES   REMARKS
KINGMAN        CLEAR     86  31  13 SW18G24   29.86S
$$

AZZ004>008-015-016-018-040300-
NORTH CENTRAL ARIZONA

CITY           SKY/WX    TMP DP  RH WIND       PRES   REMARKS
GRAND CANYON   CLEAR     69  38  32 SW8       30.11S
WILLIAMS       PTCLDY    70  37  30 SW10G16   30.18S
PRESCOTT       MOCLDY    77  42  28 S9        30.03S
FLAGSTAFF      NOT AVBL
PAYSON         MOCLDY    75  52  43 S7        30.08R
PAGE           PTCLDY    86  35  16 S6        29.88R
$$

AZZ009>014-017-040300-
NORTHEAST ARIZONA

CITY           SKY/WX    TMP DP  RH WIND       PRES   REMARKS
WINSLOW        NOT AVBL
SAINT JOHNS    LGT RAIN  60  56  86 N3        30.13F
WINDOW ROCK    CLOUDY    67  46  47 S13       30.18R
SHOW LOW       CLOUDY    64  50  59 S6        30.17R
$$

AZZ023-040300-
GREATER PHOENIX AREA

CITY           SKY/WX    TMP DP  RH WIND       PRES   REMARKS
PHOENIX        MOCLDY    79  66  64 S25G35    29.81S
GLENDALE       MOCLDY    84  63  48 SE17G32   29.82R
DEER VALLEY    MOCLDY    79  64  60 SE18G26   29.84R
SCOTTSDALE     PTCLDY    78  65  63 S10G24    29.88R
MESA-GATEWAY   MOCLDY    77  64  65 S16G23    29.90R
CHANDLER       MOCLDY    79  66  65 SE21      29.87R
$$

AZZ027-028-040300-
SOUTHWEST MARICOPA COUNTY AND PINAL COUNTY

CITY           SKY/WX    TMP DP  RH WIND       PRES   REMARKS
CASA GRANDE    CLOUDY    73  64  73 SW16G31   29.85R
$$

AZZ503-504-507>509-040300-
SOUTHEAST ARIZONA

CITY           SKY/WX    TMP DP  RH WIND       PRES   REMARKS
TUCSON         CLOUDY    70  64  81 S8        29.99F
DAVIS-MONTHAN  CLOUDY    70  66  88 SE7       29.97F
RYAN FIELD     CLEAR     72  70  94 SE5       30.00S
NOGALES        LGT RAIN  67  63  87 NE7       30.05F
SIERRA VISTA   PTCLDY    64  63  94 E3        30.11F
SAFFORD        CLOUDY    76  60  57 E12       29.95R
$$

AZZ020-021-025-026-031-040300-
SOUTHWEST ARIZONA

CITY           SKY/WX    TMP DP  RH WIND       PRES   REMARKS
YUMA           NOT AVBL
$$

CAZ031-033-041-043-047-048-061-040300-
SOUTHERN CALIFORNIA

CITY           SKY/WX    TMP DP  RH WIND       PRES   REMARKS
DOWNTOWN L.A.  CLEAR     72  57  59 W5        29.82S
L.A. AIRPORT   PTCLDY    70  57  63 W9        29.83S
SAN DIEGO      PTCLDY    72  57  59 W7        29.85S
BURBANK        CLEAR     72  57  59 S9        29.82R
ONTARIO        CLEAR     74  56  53 W13G22    29.81S
RIVERSIDE      CLEAR     74  57  55 W10       29.81R
PALM SPRINGS   CLEAR     93  44  18 NW20G31   29.68R
EL CENTRO NAS  CLEAR     97  42  15 W15       29.65S
IMPERIAL       CLEAR     97  45  16 W9        29.63R
BLYTHE         CLEAR    100  40  12 SW15      29.65R
$$

NVZ020-UTZ003-040300-
SOUTHERN NEVADA-UTAH

CITY           SKY/WX    TMP DP  RH WIND       PRES   REMARKS
LAS VEGAS      NOT AVBL
SALT LAKE CITY PTCLDY    85  29  13 S17       29.74S
$$

NMZ009-TXZ055-040300-
NEW MEXICO-WEST TEXAS

CITY           SKY/WX    TMP DP  RH WIND       PRES   REMARKS
ALBUQUERQUE    MOCLDY    83  44  25 SW10      30.03R
EL PASO        CLOUDY    84  50  30 NW12      29.98R
$$


........................KEY........................
SKY/WX - SKY CONDITION/WEATHER
TMP    - TEMPERATURE IN FAHRENHEIT
DP     - DEW POINT IN FAHRENHEIT
RH     - RELATIVE HUMIDITY IN PERCENT
WIND   - DIRECTION AND SPEED IN MILES PER HOUR (MPH)
VRB    - VARIABLE WIND DIRECTION
PRES   - MEAN SEA LEVEL PRESSURE IN INCHES OF MERCURY
         F - FALLING PRESSURE   R - RISING PRESSURE
         S - STEADY PRESSURE
VSB    - VISIBILITY IN MILES
HX     - HEAT INDEX IN FAHRENHEIT
WCI    - WIND CHILL INDEX IN FAHRENHEIT
TC     - TEMPERATURE IN CELSIUS WHICH IS ALSO KNOWN AS
         TEMPERATURE IN CENTIGRADE
AFB    - AIR FORCE BASE
         LUKE AFB IS LUKE AIR FORCE BASE
         DAVIS-MONTHAN IS DAVIS-MONTHAN AIR FORCE BASE
NAS    - NAVAL AIR STATION
         EL CENTRO NAS IS EL CENTRO NAVAL AIR STATION
N/A    - NOT AVAILABLE



USA.gov is the U.S. government's official web portal to all federal, state and local government web resources and services.